Lawrence, KS

12:54 PM CST on November 18, 2017 (GMT -0600)
Lawrence Municipal

Weather History for KLWC - June, 2014

Change the Weather History Date:

Saturday, June 28, 2014

  Actual Average Record
Temperature  
Mean Temperature 77 °F 77 °F  
Max Temperature 85 °F 88 °F 107 °F (2012)
Min Temperature 68 °F 66 °F 55 °F (2006)
Degree Days  
Heating Degree Days 0 0  
Month to date heating degree days 0 6  
Since 1 June heating degree days 0 6  
Since 1 July heating degree days 5635 5090  
Cooling Degree Days 12 12  
Month to date cooling degree days 288 252  
Year to date cooling degree days 481 371  
Since 1 June cooling degree days 288 252  
Growing Degree Days 26 (Base 50)    
Moisture  
Dew Point 69 °F    
Average Humidity 76    
Maximum Humidity 90    
Minimum Humidity 61    
Precipitation  
Precipitation 0.16 in 0.15 in 2.01 in (1999)
Month to date precipitation 9.16 5.16  
Year to date precipitation 16.82 19.05  
Sea Level Pressure  
Sea Level Pressure 29.81 in    
Wind  
Wind Speed 11 mph (South)    
Max Wind Speed 23 mph    
Max Gust Speed 31 mph    
Visibility 9 miles    
Events Rain , Thunderstorm    
T = Trace of Precipitation, MM = Missing Value Source: NWS Daily Summary

Daily Weather History Graph

Daily Weather History Graph

Search for Another Location

Airport or City:

Trip Planner

Search our weather history database for the weather conditions in past years. The results will help you decide how hot, cold, wet, or windy it might be!

Date:

Astronomy

Jun. 28, 2014 Rise Set
Actual Time 5:57 AM CDT 8:50 PM CDT
Civil Twilight 5:25 AM CDT 9:22 PM CDT
Nautical Twilight 4:45 AM CDT 10:03 PM CDT
Astronomical Twilight 3:58 AM CDT 10:49 PM CDT
Moon 7:20 AM CDT (6/28) 9:37 PM CDT (6/28)
Length of Visible Light 15h 57m
Length of Day
14h 53m
New Moon, 2% of the Moon is Illuminated
Jun 28
New Moon
Jul 5
First Quarter
Jul 12
Full
Jul 18
Last Quarter
Jul 26
New

Hourly Weather History & Observations

Time (CDT) Temp. Heat Index Dew Point Humidity Pressure Visibility Wind Dir Wind Speed Gust Speed Precip Events Conditions
1:52 AM 75.9 °F - 69.1 °F 79% 29.74 in 10.0 mi SSE 18.4 mph 25.3 mph N/A   Clear
2:52 AM 75.0 °F - 69.1 °F 82% 29.72 in 10.0 mi South 18.4 mph 25.3 mph N/A   Clear
3:32 AM 77.0 °F - 69.1 °F 76% 29.75 in 10.0 mi South 15.0 mph 26.5 mph N/A   Mostly Cloudy
3:52 AM 77.0 °F - 70.0 °F 79% 29.75 in 10.0 mi South 15.0 mph 25.3 mph N/A   Overcast
4:52 AM 77.0 °F - 70.0 °F 79% 29.76 in 10.0 mi South 15.0 mph 31.1 mph N/A   Overcast
5:52 AM 77.0 °F - 70.0 °F 79% 29.78 in 10.0 mi South 15.0 mph - N/A   Overcast
6:52 AM 77.0 °F - 70.0 °F 79% 29.78 in 10.0 mi South 16.1 mph 23.0 mph N/A   Overcast
7:12 AM 75.9 °F - 68.0 °F 76% 29.82 in 10.0 mi SW 9.2 mph - 0.01 in   Overcast
7:52 AM 72.0 °F - 66.0 °F 81% 29.81 in 10.0 mi WSW 8.1 mph - 0.01 in   Overcast
8:52 AM 73.9 °F - 66.0 °F 76% 29.81 in 10.0 mi South 6.9 mph - N/A   Mostly Cloudy
9:52 AM 78.1 °F - 66.9 °F 68% 29.81 in 10.0 mi SSE 6.9 mph - N/A   Clear
10:52 AM 82.0 °F 84.9 °F 68.0 °F 62% 29.81 in 10.0 mi SSE 11.5 mph - N/A   Clear
12:52 PM 79.0 °F - 69.1 °F 72% 29.80 in 10.0 mi South 20.7 mph 25.3 mph N/A   Scattered Clouds
1:52 PM 82.9 °F 87.0 °F 70.0 °F 65% 29.80 in 10.0 mi South 13.8 mph 19.6 mph N/A   Clear
2:34 PM 81.0 °F 84.9 °F 71.1 °F 72% 29.83 in 10.0 mi South 10.4 mph - N/A   Overcast
2:47 PM 82.4 °F 87.2 °F 71.6 °F 70% 29.82 in 10.0 mi South 5.8 mph - N/A   Overcast
2:52 PM 81.0 °F 84.9 °F 71.1 °F 72% 29.80 in 10.0 mi South 6.9 mph - N/A   Overcast
3:19 PM 79.0 °F - 72.0 °F 79% 29.83 in 3.0 mi South 16.1 mph 20.7 mph 0.03 in Rain , Thunderstorm Light Thunderstorms and Rain
3:29 PM 78.1 °F - 71.1 °F 79% 29.84 in 4.0 mi SW 11.5 mph - 0.05 in Rain , Thunderstorm Light Thunderstorms and Rain
3:39 PM 75.0 °F - 69.1 °F 82% 29.83 in 2.5 mi West 11.5 mph - 0.08 in Rain , Thunderstorm Thunderstorms and Rain
3:52 PM 73.0 °F - 68.0 °F 84% 29.77 in 3.0 mi West 3.5 mph - 0.11 in Rain , Thunderstorm Light Rain
4:07 PM 72.0 °F - 69.1 °F 91% 29.81 in 4.0 mi NNW 4.6 mph - 0.03 in Rain Light Rain
4:15 PM 73.0 °F - 69.1 °F 87% 29.82 in 4.0 mi East 3.5 mph - 0.03 in Rain , Thunderstorm Light Rain
4:22 PM 73.0 °F - 69.1 °F 87% 29.81 in 6.0 mi East 5.8 mph - 0.04 in Rain , Thunderstorm Light Rain
4:30 PM 73.0 °F - 69.1 °F 87% 29.81 in 7.0 mi East 6.9 mph - 0.04 in Rain Light Rain
4:52 PM 73.9 °F - 70.0 °F 87% 29.78 in 10.0 mi ESE 12.7 mph - 0.04 in   Mostly Cloudy
5:34 PM 75.0 °F - 70.0 °F 84% 29.83 in 9.0 mi South 8.1 mph - N/A   Mostly Cloudy
5:52 PM 75.0 °F - 70.0 °F 84% 29.82 in 10.0 mi SSW 9.2 mph - N/A   Mostly Cloudy
6:07 PM 75.0 °F - 69.1 °F 82% 29.84 in 10.0 mi South 9.2 mph - N/A   Overcast
6:52 PM 73.9 °F - 69.1 °F 85% 29.81 in 10.0 mi South 6.9 mph - N/A   Scattered Clouds
7:52 PM 73.9 °F - 69.1 °F 85% 29.82 in 10.0 mi SSE 9.2 mph - N/A   Partly Cloudy
8:15 PM 73.9 °F - 70.0 °F 87% 29.84 in 10.0 mi SSE 9.2 mph - N/A   Mostly Cloudy
8:49 PM 73.4 °F - 69.8 °F 88% 29.86 in 10.0 mi South 9.2 mph - N/A   Scattered Clouds
8:52 PM 73.9 °F - 69.1 °F 85% 29.84 in 10.0 mi South 9.2 mph - N/A   Scattered Clouds
9:52 PM 72.0 °F - 68.0 °F 87% 29.87 in 10.0 mi SSW 3.5 mph - N/A   Clear
10:52 PM 69.1 °F - 66.9 °F 93% 29.89 in 10.0 mi SE 4.6 mph - N/A   Clear
11:52 PM 69.1 °F - 66.9 °F 93% 29.90 in 10.0 mi SE 5.8 mph - N/A   Clear